Weather History for Linden, NJ

Change the Weather History Date:

Wednesday, January 23, 2013

  Actual Average (KEWR) Record (KEWR)
Temperature  
Mean Temperature 17 °F 32 °F  
Max Temperature 23 °F 39 °F 62 °F (1957)
Min Temperature 12 °F 24 °F -4 °F (1936)
Degree Days  
Heating Degree Days 48 34  
Month to date heating degree days 772  
Since 1 July heating degree days 2522  
Cooling Degree Days 0 0  
Month to date cooling degree days 0  
Year to date cooling degree days 0  
Moisture  
Dew Point -2 °F    
Average Humidity 44    
Maximum Humidity 59    
Minimum Humidity 32    
Precipitation  
Precipitation 0.00 in 0.11 in 2.30 in (1998)
Month to date precipitation 2.68  
Year to date precipitation 2.68  
Snow  
Snow 0.00 in 0.20 in 4.50 in (2005)
Month to date snowfall 5.7  
Since 1 July snowfall 11.5  
Snow Depth -    
Sea Level Pressure  
Sea Level Pressure 30.23 in    
Wind  
Wind Speed 11 mph (West)    
Max Wind Speed 18 mph    
Max Gust Speed 25 mph    
Visibility 10 miles    
Events      
T = Trace of Precipitation, MM = Missing Value Source: NWS Daily Summary

Daily Weather History Graph

Daily Weather History Graph

Search for Another Location

Airport:

Trip Planner

Search our weather history database for the weather conditions in past years. The results will help you decide how hot, cold, wet, or windy it might be!

Date:

Astronomy

Jan. 23, 2013 Rise Set
Actual Time 7:14 AM EST 5:04 PM EST
Civil Twilight 6:44 AM EST 5:33 PM EST
Nautical Twilight 6:11 AM EST 6:06 PM EST
Astronomical Twilight 5:38 AM EST 6:39 PM EST
Moon 2:12 PM EST (1/23) 4:23 AM EST (1/23)
Length of Visible Light 10h 49m
Length of Day
9h 50m
Waxing Gibbous, 89% of the Moon is Illuminated
Jan 23
Waxing Gibbous
Jan 26
Full
Feb 3
Last Quarter
Feb 10
New
Feb 17
First Quarter

Hourly Weather History & Observations

Time (EST) Temp. Windchill Dew Point Humidity Pressure Visibility Wind Dir Wind Speed Gust Speed Precip Events Conditions
12:15 AM 15.4 °F -1.1 °F -6.0 °F 38% 30.22 in 10.0 mi WNW 18.4 mph 25.3 mph N/A   Clear
12:35 AM 14.9 °F -1.3 °F -5.8 °F 40% 30.22 in 10.0 mi West 17.3 mph 21.9 mph N/A   Clear
12:55 AM 14.9 °F 0.9 °F -6.3 °F 39% 30.22 in 10.0 mi WNW 12.7 mph 20.7 mph N/A   Clear
1:15 AM 14.7 °F 0.7 °F -6.5 °F 39% 30.22 in 10.0 mi WNW 12.7 mph 18.4 mph N/A   Clear
1:35 AM 14.5 °F 2.7 °F -6.2 °F 40% 30.23 in 10.0 mi West 9.2 mph 16.1 mph N/A   Clear
1:55 AM 14.4 °F 0.2 °F -5.8 °F 41% 30.23 in 10.0 mi West 12.7 mph - N/A   Clear
2:35 AM 14.0 °F 0.5 °F -4.9 °F 43% 30.24 in 10.0 mi West 11.5 mph 16.1 mph N/A   Clear
2:55 AM 14.0 °F 1.2 °F -4.7 °F 43% 30.24 in 10.0 mi West 10.4 mph 16.1 mph N/A   Clear
3:15 AM 14.0 °F 2.0 °F -4.2 °F 44% 30.24 in 10.0 mi West 9.2 mph - N/A   Clear
3:35 AM 13.8 °F 0.2 °F -4.0 °F 45% 30.24 in 10.0 mi West 11.5 mph - N/A   Clear
3:55 AM 13.6 °F 0.7 °F -3.5 °F 47% 30.24 in 10.0 mi West 10.4 mph - N/A   Clear
5:15 AM 13.1 °F 0.9 °F -2.4 °F 50% 30.24 in 10.0 mi West 9.2 mph - N/A   Clear
5:35 AM 13.1 °F 0.1 °F -2.4 °F 50% 30.24 in 10.0 mi West 10.4 mph - N/A   Clear
6:15 AM 12.9 °F 1.6 °F -1.8 °F 52% 30.25 in 10.0 mi West 8.1 mph - N/A   Clear
6:35 AM 12.7 °F 1.4 °F -1.7 °F 53% 30.25 in 10.0 mi West 8.1 mph - N/A   Clear
6:55 AM 12.7 °F -0.4 °F -1.7 °F 53% 30.26 in 10.0 mi West 10.4 mph 17.3 mph N/A   Clear
7:15 AM 12.7 °F 0.4 °F -1.5 °F 53% 30.26 in 10.0 mi West 9.2 mph - N/A   Clear
7:35 AM 12.7 °F -1.1 °F -1.3 °F 54% 30.26 in 10.0 mi West 11.5 mph - N/A   Clear
7:55 AM 13.1 °F 0.9 °F -0.6 °F 54% 30.26 in 10.0 mi West 9.2 mph 16.1 mph N/A   Clear
8:15 AM 13.8 °F 0.2 °F -0.4 °F 53% 30.26 in 10.0 mi West 11.5 mph - N/A   Clear
8:35 AM 14.4 °F 0.9 °F -0.2 °F 52% 30.26 in 10.0 mi WNW 11.5 mph - N/A   Clear
8:55 AM 15.1 °F 1.8 °F -0.0 °F 51% 30.26 in 10.0 mi West 11.5 mph 16.1 mph N/A   Clear
9:15 AM 15.8 °F 4.2 °F -0.2 °F 49% 30.27 in 10.0 mi West 9.2 mph 17.3 mph N/A   Clear
9:35 AM 16.7 °F 2.6 °F -0.2 °F 47% 30.27 in 10.0 mi West 13.8 mph 20.7 mph N/A   Clear
9:55 AM 17.4 °F 3.5 °F -1.1 °F 44% 30.28 in 10.0 mi West 13.8 mph - N/A   Clear
10:15 AM 18.5 °F 3.8 °F -1.5 °F 42% 30.27 in 10.0 mi West 16.1 mph 19.6 mph N/A   Scattered Clouds
10:35 AM 18.9 °F 6.5 °F -1.7 °F 41% 30.27 in 10.0 mi WNW 11.5 mph 21.9 mph N/A   Clear
10:55 AM 19.9 °F 8.6 °F -2.4 °F 38% 30.26 in 10.0 mi West 10.4 mph - N/A   Scattered Clouds
11:15 AM 20.8 °F 6.8 °F -3.5 °F 34% 30.26 in 10.0 mi WNW 16.1 mph 21.9 mph N/A   Clear
11:55 AM 20.8 °F 6.8 °F -3.8 °F 34% 30.23 in 10.0 mi West 16.1 mph 21.9 mph N/A   Mostly Cloudy
12:15 PM 20.3 °F 8.3 °F -3.6 °F 35% 30.22 in 10.0 mi WNW 11.5 mph 19.6 mph N/A   Mostly Cloudy
12:35 PM 20.8 °F 7.9 °F -3.8 °F 34% 30.21 in 10.0 mi West 13.8 mph 18.4 mph N/A   Mostly Cloudy
12:55 PM 21.2 °F 8.9 °F -4.2 °F 33% 30.20 in 10.0 mi WNW 12.7 mph 17.3 mph N/A   Overcast
1:15 PM 21.9 °F 11.7 °F -3.3 °F 33% 30.20 in 10.0 mi WNW 9.2 mph - N/A   Mostly Cloudy
1:35 PM 21.7 °F 10.2 °F -2.7 °F 34% 30.19 in 10.0 mi WNW 11.5 mph 20.7 mph N/A   Overcast
1:55 PM 22.6 °F 9.6 °F -3.1 °F 32% 30.19 in 10.0 mi West 15.0 mph - N/A   Overcast
2:15 PM 21.9 °F 7.3 °F -1.8 °F 35% 30.19 in 10.0 mi WNW 18.4 mph - N/A   Mostly Cloudy
2:55 PM 21.2 °F 10.9 °F -1.8 °F 36% 30.19 in 10.0 mi West 9.2 mph - N/A   Overcast
3:15 PM 21.9 °F 9.2 °F -3.5 °F 33% 30.19 in 10.0 mi West 13.8 mph 17.3 mph N/A   Mostly Cloudy
3:35 PM 20.7 °F 8.2 °F -2.0 °F 37% 30.19 in 10.0 mi West 12.7 mph 20.7 mph N/A   Mostly Cloudy
3:55 PM 20.8 °F 9.0 °F -3.6 °F 34% 30.19 in 10.0 mi West 11.5 mph - N/A   Scattered Clouds
4:35 PM 20.3 °F 7.2 °F -3.3 °F 35% 30.19 in 10.0 mi West 13.8 mph - N/A   Scattered Clouds
4:55 PM 19.8 °F 6.5 °F -2.7 °F 37% 30.20 in 10.0 mi WNW 13.8 mph 18.4 mph N/A   Clear
5:15 PM 19.4 °F 7.9 °F -2.9 °F 37% 30.20 in 10.0 mi WNW 10.4 mph - N/A   Clear
5:35 PM 19.2 °F 7.7 °F -3.5 °F 37% 30.21 in 10.0 mi WNW 10.4 mph - N/A   Clear
5:55 PM 19.0 °F 9.0 °F -3.5 °F 37% 30.21 in 10.0 mi WNW 8.1 mph - N/A   Clear
6:15 PM 18.9 °F 8.8 °F -3.6 °F 37% 30.22 in 10.0 mi WNW 8.1 mph - N/A   Clear
6:35 PM 18.5 °F 9.3 °F -3.6 °F 38% 30.22 in 10.0 mi WNW 6.9 mph - N/A   Clear
7:15 PM 18.1 °F 10.0 °F -2.9 °F 39% 30.22 in 10.0 mi WNW 5.8 mph - N/A   Clear
7:55 PM 17.2 °F 10.2 °F -0.9 °F 45% 30.22 in 10.0 mi West 4.6 mph - N/A   Clear
8:15 PM 17.1 °F 8.7 °F -0.8 °F 46% 30.22 in 10.0 mi WNW 5.8 mph - N/A   Clear
8:35 PM 17.1 °F 10.0 °F -0.4 °F 46% 30.21 in 10.0 mi West 4.6 mph - N/A   Clear
8:55 PM 16.7 °F 11.2 °F 0.1 °F 48% 30.21 in 10.0 mi West 3.5 mph - N/A   Clear
9:15 PM 16.5 °F 9.4 °F 0.5 °F 49% 30.21 in 10.0 mi West 4.6 mph - N/A   Clear
9:35 PM 16.0 °F 10.4 °F 1.4 °F 53% 30.22 in 10.0 mi WNW 3.5 mph - N/A   Clear
9:55 PM 15.8 °F - 1.6 °F 54% 30.22 in 10.0 mi Calm Calm - N/A   Clear
10:15 PM 15.8 °F - 2.1 °F 55% 30.22 in 10.0 mi Calm Calm - N/A   Clear
10:35 PM 15.8 °F - 2.5 °F 56% 30.22 in 10.0 mi Calm Calm - N/A   Clear
10:55 PM 15.8 °F 10.2 °F 2.8 °F 57% 30.22 in 10.0 mi West 3.5 mph - N/A   Clear
11:15 PM 15.4 °F - 3.4 °F 59% 30.21 in 10.0 mi Calm Calm - N/A   Mostly Cloudy
11:35 PM 15.8 °F - 3.7 °F 59% 30.21 in 10.0 mi Calm Calm - N/A   Overcast
11:55 PM 16.3 °F 10.8 °F 3.4 °F 57% 30.21 in 10.0 mi West 3.5 mph - N/A   Mostly Cloudy